Find Starlink 31098

NORAD ID: 58716 Int'l Des: 2024-002 Owner: SPXS Country: US Constellation: starlink operational
LEOCIRCULAR

現在のビュー

3D地球を読み込み中...

About Starlink 31098

Starlink 31098 (NORAD 58716) is a starlink constellation satellite (v2 mini) launched Jan 3, 2024 by SPXS of US. It operates in LEO, CIRCULAR orbit with a mass of 730.00 kg.

次回通過

Passes for default location (London). Set your location on the main map for personalized predictions.

高度履歴

Loading altitude history...

軌道要素

1 58716U 24002M 26237.52770459 -.00000308 00000-0 20379-5 0 9992
2 58716 53.1611 165.1010 0001451 84.3230 275.7938 15.34388588147872
Epoch: Aug 25, 2026 • Age: 15 hours

現在のステータス

高度 481.2 km
遠地点 / 近地点 N/A
速度 7.62 km/s
衛星直下点 -50.68°S, 15.58°E
打ち上げ日 Jan 3, 2024
運用期間 2.6 years
タイプ internet

技術仕様

分類 Payload
質量 730.00 kg
乾燥質量 700.00 kg
総質量 730.00 kg
長さ 0.30 m
直径 4.10 m
スパン 29.00 m
形状 Box + pan
製造者 SPXS
バスタイプ Starlink V2M
フェーズステータス In Orbit
所有者/国 SPXS/US

Most Searched